{"data":{"norad_id":63199,"epoch":"2026-09-21T17:25:47.376192Z","epoch_age_seconds":56249,"freshness":"FRESH","line1":"1 63199U 25048S   26264.72624278  .00020941  00000+0  76805-3 0  9999","line2":"2 63199  43.0014  58.1881 0001264 266.7926  93.2781 15.27592913 87070","mean_motion":15.27592913,"eccentricity":0.0001264,"inclination_deg":43.0014,"raan_deg":58.1881,"arg_perigee_deg":266.7926,"mean_anomaly_deg":93.2781,"bstar":0.00076805,"rev_number":8707,"period_min":94.265951860959,"perigee_km":482.14318110943,"apogee_km":483.87767917977,"semimajor_km":6861.1474301446,"source":"CELESTRAK","updated_at":"2026-09-22T09:00:49.797971Z"}}